Home   Weather   Alofi   Past weeks
Flag for Niue

Past Weather in Alofi, Niue — Yesterday and Last 2 Weeks

Now
75 °F

Mild.


Feels Like: 74 °F
Forecast: 82 / 74 °F
Wind: 3 mph from Southeast

Location: Alofi / Niue

Current Time: Mar 21, 2019 at 7:24:14 am

Latest Report: Mar 21, 2019 at 6:00 am


Visibility: N/A

Pressure: 29.89 "Hg

Humidity: 94%

Dew Point: 73 °F

Location of AlofiLocation

Past Weather in Alofi — Graph

°F

Alofi Temperature Yesterday

Maximum temperature yesterday: 86 °F (at 11:00 am)
Minimum temperature yesterday: 72 °F (at 6:00 am)
Average temperature yesterday: 79 °F

High & Low Weather Summary for the Past Weeks

 TemperatureHumidityPressure
High88 °F (Mar 10, 1:00 pm)100% (Mar 9, 4:00 am)29.98 "Hg (Mar 9, 4:00 am)
Low70 °F (Mar 7, 5:00 am)59% (Mar 6, 1:00 pm)29.74 "Hg (Mar 16, 3:00 pm)
Average79 °F85%29.86 "Hg
* Reported Mar 6 6:00 am — Mar 21 6:00 am, Alofi. Weather by CustomWeather, © 2019

Note: Actual official high and low records may vary slightly from our data, if they occured in-between our weather recording intervals... More about our weather records

Advertising

Alofi Weather History for the Previous 24 Hours

Scroll right to see more
 ConditionsComfort  
Time TempWeatherWind HumidityBarometerVisibility
6:00 am
Thu, Mar 21
75 °FMild.3 mph94%29.89 "HgN/A
5:00 am75 °FMild.5 mph89%29.89 "HgN/A
4:00 am75 °FMild.5 mph89%29.89 "HgN/A
3:00 am75 °FMild.3 mph89%29.89 "HgN/A
2:00 am75 °FMild.5 mph89%29.89 "HgN/A
1:00 am75 °FMild.5 mph89%29.92 "HgN/A
12:00 am75 °FMild.3 mph94%29.92 "HgN/A
11:00 pm
Wed, Mar 20
75 °FMild.6 mph94%29.92 "HgN/A
10:00 pm77 °FWarm.5 mph89%29.95 "HgN/A
9:00 pm77 °FWarm.5 mph89%29.92 "HgN/A
8:00 pm77 °FWarm.3 mph89%29.92 "HgN/A
7:00 pm79 °FWarm.5 mph84%29.89 "HgN/A
6:00 pm81 °FWarm.7 mph79%29.89 "HgN/A
5:00 pm84 °FWarm.10 mph70%29.89 "HgN/A
4:00 pm84 °FScattered clouds.9 mph70%29.86 "HgN/A
3:00 pm84 °FScattered clouds.10 mph74%29.89 "HgN/A
2:00 pm86 °FPartly sunny.13 mph66%29.89 "HgN/A
1:00 pm84 °FScattered clouds.13 mph74%29.92 "HgN/A
12:00 pm86 °FPartly sunny.9 mph70%29.92 "HgN/A
11:00 am86 °FPartly sunny.8 mph70%29.95 "HgN/A
10:00 am84 °FBroken clouds.10 mph74%29.95 "HgN/A
9:00 am82 °FBroken clouds.9 mph74%29.95 "HgN/A
8:00 am81 °FWarm.7 mph84%29.92 "HgN/A
7:00 am73 °FMild.2 mph94%29.92 "HgN/A
Weather by CustomWeather, © 2019

See weather overview